BEIDOU 16

Last updated on Jan. 26, 2020, 4:40 a.m. UTC

1 38953U 12059A   20025.89520050 -.00000183  00000-0  00000+0 0  9995
2 38953   1.5994  83.7386 0006067 222.7071 224.4895  1.00271047 26647
UTC
Height (km)
Latitude
Longitude
Inclination
Orbital Period
UTC large
Height (km)
Speed (km/s)
/
Latitude / Longitude
Inclination (degrees)
Orbital Period (minutes)
Azimuth
Elevation
Range (km)
Doppler Factor
iOS Compass Heading
iOS Angle

Next 30 passes for location: Hong Kong

Rise time Rise Azimuth (degrees) Set time Set Azimuth (degrees) Duration Max altitude (degrees)

No matching passes for this satellites